sat.trackr.live / text

‹ back to catalog

STARLINK-11223 [DTC]

NORAD 60307 · 2024-133G

PAYLOAD ACTIVE UNKNOWN

§ Identity

Operator
Country
US
Launch date
2024-07-28
Launch site
AFWTR
Launch vehicle
Mass (kg)
RCS (m²)

Purposes: comms

External: N2YO · Heavens-Above · Gunter

§ Orbital elements

Epoch: 2026-09-20T05:52:23.695680Z

Period
91.74 min
Inclination
53.1581°
Eccentricity
0.0001110
Mean motion
15.69708321 rev/d
Perigee alt
359.0 km
Apogee alt
360.5 km
Semi-major
6,737.9 km
B*
3.7635e-6
RAAN
266.9523°
Arg perigee
69.2714°
Mean anomaly
290.8423°
Rev number
12,429

§ Raw data

STARLINK-11223 [DTC]1 60307U 24133G   26263.24471870 -.00000133  00000+0  37635-5 0  99972 60307  53.1581 266.9523 0001110  69.2714 290.8423 15.69708321124294

JSON: /api/v1/satellites/60307 · /tle

For live sub-satellite position, see the globe view (requires WebGL).

§ Visibility from observer

Set your observer location to see the next 7 days of passes ≥ 10°. The values pass through the URL so the page stays shareable.

No JS? Fill the form by hand. The geolocation button needs JavaScript.